Location: Olsztyn
(53.7767°N, 20.4765°E)
Time: 17:44:52
(UTC+02:00)

A-11 Canister half - Pass Details

Date: 26 January 2022
Orbit: 1513 x 1686 km, 47.2° (Epoch: 24 May)

Event Time Altitude Azimuth Distance (km) Brightness Sun altitude
Rises 22:02:55 0° 283° (WNW) 4,680 12.0 -49.1°
Reaches altitude 10° 22:06:21 10° 274° (W) 3,684 11.3 -49.4°
Enters shadow 22:08:56 19° 262° (W) 3,037 10.7 -49.7°
